This is the latest recevied weather packets stored in our database for station/object N4AN. If no packets are shown the sender has not sent any weather packets the latest 10 day(s).
| Time | Temp. | Humidity | Pressure | Rain* | Wind** | Luminosity | Snow |
|---|---|---|---|---|---|---|---|
| 1788095705 | 32.22° C | 74% | 1011.5 hPa | 0 mm | - | - | - |
| 1788095404 | 31.67° C | 74% | 1011.5 hPa | 0 mm | - | - | - |
| 1788095103 | 31.67° C | 75% | 1011.5 hPa | 0 mm | - | - | - |
| 1788094795 | 31.67° C | 75% | 1011.5 hPa | 0 mm | - | - | - |
| 1788094495 | 31.11° C | 76% | 1011.6 hPa | 0 mm | - | - | - |
| 1788094193 | 31.11° C | 77% | 1011.6 hPa | 0 mm | - | - | - |
| 1788094023 | 30.56° C | 78% | 1011.5 hPa | 0 mm | - | - | - |
| 1788093893 | 30.56° C | 78% | 1011.5 hPa | 0 mm | - | - | - |
| 1788093593 | 30° C | 77% | 1011.7 hPa | 0 mm | - | - | - |
| 1788093292 | 30.56° C | 77% | 1011.7 hPa | 0 mm | - | - | - |
| 1788092991 | 30.56° C | 79% | 1011.6 hPa | 0 mm | - | - | - |
| 1788092690 | 29.44° C | 79% | 1011.5 hPa | 0 mm | - | - | - |
| 1788092087 | 30° C | 80% | 1011.3 hPa | 0 mm | - | - | - |
| 1788091787 | 29.44° C | 82% | 1011.3 hPa | 0 mm | - | - | - |
| 1788091484 | 28.89° C | 79% | 1010.6 hPa | 0 mm | - | - | - |
| 1788090884 | 28.89° C | 79% | 1010.6 hPa | 0 mm | - | - | - |
| 1788090170 | 28.89° C | 79% | 1010.6 hPa | 0 mm | - | - | - |
| 1788089979 | 28.89° C | 79% | 1010.6 hPa | 0 mm | - | - | - |
| 1788089677 | 28.89° C | 79% | 1010.6 hPa | 0 mm | - | - | - |
| 1788089372 | 28.89° C | 79% | 1010.6 hPa | 0 mm | - | - | - |
| 1788089070 | 28.89° C | 79% | 1010.6 hPa | 0 mm | - | - | - |
| 1788088770 | 28.89° C | 79% | 1010.6 hPa | 0 mm | - | - | - |
| 1788088469 | 28.89° C | 78% | 1010.4 hPa | 0 mm | - | - | - |
| 1788088169 | 29.44° C | 77% | 1010.4 hPa | 0 mm | - | - | - |
| 1788087868 | 29.44° C | 77% | 1010.4 hPa | 0 mm | - | - | - |
* Rain latest hour (hover to see other rain measurements)
** Current wind speed in m/s (hover to see current wind gust speed)